Showing default

GRUS-1B, 47934

Orbit data source: Space-Track

GRUS-1B, 47934 is a payload satellite owned by AXELSPACE (JP) in SSO that was launched on Mon, 22 Mar 2021 UTC via a SOYUZ-2-1A launch vehicle from the Tyuratam Missile And Space Complex (TTMTR). Payload-class satellites include a variety of spacecraft equipped with specific instruments for various scientific and technological missions. These include communications satellites like Starlink; space stations such as the ISS; scientific satellites like the Hubble; Earth observation satellites from companies like Planet Labs, Umbra, and HawkEye 360; GPS; miniature CubeSats for education and research; and military/defense satellites.

Loading next visibility...
Identifier
47934, 2021-022C
Orbit
SSO
Country
Flag of JPJP / JPN
Related business
Manufacturer
AXELSPACE
Mission
Operational Commercial Imaging
Bus & Motor
GRUS, Unknown motor
Mass
80 kg wet, 80 kg dry
Launch date (UTC)
2021-03-22 (5 years ago)
Launch vehicle
SOYUZ-2-1A
Launch site
Tyuratam Missile And Space Complex (TTMTR)
Object type
Payload
Rocket body
Debris
Shape & HBR
Box, 0.3 m
Radar Cross Section
0.375 m², Medium (>0.1 m² and < 1m²)

Expand to show TLE details & history
Last TLE update: 1 day ago

TLE from 1 day ago
0 GRUS-1B
1 47934U 21022C   26172.51627743  .00000066  00000-0  10200-4 0  9996
2 47934  97.5387  55.5734 0015265 311.4634  48.5278 14.98887775286541
Epoch: 2026-06-21T12:23Z
TLE epoch observation values (Epoch: 2026-06-21T12:23:26.369Z)
Latitude
-0.00002°
Longitude
-40.00189°
Altitude
566.372 km
Speed
7.582 km/s
True Right ascension
03h 42m 17s
True Declination
0° 00' 00"
Sunlit
Object was in daylight at epoch
Visualization orbit readout
Latitude
Unknown
Longitude
Unknown
Altitude
Unknown
Speed
Unknown
Apparent Right ascension
Unknown
Apparent Declination
Unknown
Sunlit
N/A
Visualization observer readout
Local Sidereal Time
23:20:40
Azimuth
Unknown
Elevation
Unknown
Doppler factor
Unknown
Orbital elements
Apogee altitude
577.934 km
Perigee altitude
556.729 km
Semi-major axis
6,945.468 km
Eccentricity
0.00153
Inclination
97.5387°
RAAN
55.5734°
Arg. of periapsis
311.4634°
True anomaly
48.65903°
Mean anomaly
48.5278°
Eccentric anomaly
48.5934°
Mean motion
3.74965 °/min
Orbital period
96.01 mins
BSTAR
0.0000102
Loading maneuver chart data...
Computing Atmospheric mass density...

Documentation

Showing up to 5 results
|